GSAT0201 (GALILEO 5)

Last updated on Thu Nov 21 2024 00:02:30 GMT+0000 (Coordinated Universal Time)

1 40128U 14050A 24325.39482399 -.00000070 00000+0 00000+0 0 9994 2 40128 49.4981 296.7730 1615240 157.3295 210.7154 1.85519539 67679
UTC large
Height (km)
Speed (km/s)
/
Latitude / Longitude
Inclination (degrees)
Orbital Period (minutes)
Azimuth
Elevation
Range (km)
Doppler Factor

Next 0 passes for location: London (51.5072 / 0.1276)

Sorry there are no passes over London.